| time (UTC) | temp F | wind direction | speed knots | gust knots | rain 1hr in | rain 24hr in | rain mn in | humidity % | barometer mb |
| 20260504004542 | 63 | 79 | 4.3 | 11.3 | 0.00 | 0.11 | 0.00 | 68 | 1012.3 |
| 20260504003046 | 66 | 156 | 3.5 | 9.6 | 0.00 | 0.11 | 0.00 | 63 | 1011.6 |
| 20260504001556 | 66 | 64 | 7.8 | 15.6 | 0.00 | 0.11 | 0.00 | 59 | 1011.0 |
| 20260504000040 | 65 | 29 | 12.2 | 18.2 | 0.00 | 0.11 | 0.00 | 65 | 1010.6 |
| 20260503234540 | 64 | 54 | 10.4 | 17.4 | 0.00 | 0.11 | 0.00 | 67 | 1010.6 |
| 20260503233039 | 65 | 71 | 8.7 | 15.6 | 0.00 | 0.11 | 0.00 | 66 | 1010.5 |
| 20260503231547 | 66 | 56 | 11.3 | 17.4 | 0.00 | 0.11 | 0.00 | 65 | 1010.2 |
| 20260503230038 | 68 | 32 | 8.7 | 14.8 | 0.00 | 0.11 | 0.00 | 63 | 1010.4 |
| 20260503224538 | 67 | 46 | 8.7 | 17.4 | 0.00 | 0.11 | 0.00 | 64 | 1010.3 |
| 20260503223042 | 67 | 41 | 13.9 | 20.9 | 0.00 | 0.11 | 0.00 | 63 | 1010.1 |
| 20260503221537 | 68 | 64 | 10.4 | 17.4 | 0.00 | 0.11 | 0.00 | 63 | 1010.0 |
| 20260503220038 | 70 | 54 | 9.6 | 16.5 | 0.00 | 0.11 | 0.00 | 60 | 1010.2 |
| 20260503214540 | 71 | 76 | 9.6 | 15.6 | 0.00 | 0.11 | 0.00 | 59 | 1010.0 |
| 20260503213046 | 72 | 63 | 7.8 | 13.0 | 0.00 | 0.11 | 0.00 | 58 | 1010.2 |
| 20260503211525 | 72 | 70 | 6.1 | 15.6 | 0.00 | 0.11 | 0.00 | 57 | 1010.5 |
| 20260503210019 | 72 | 89 | 7.0 | 17.4 | 0.00 | 0.11 | 0.00 | 57 | 1010.7 |
| 20260503204516 | 71 | 90 | 5.2 | 13.9 | 0.00 | 0.11 | 0.00 | 58 | 1010.9 |
| 20260503203021 | 72 | 67 | 5.2 | 13.0 | 0.00 | 0.11 | 0.00 | 60 | 1011.1 |
| 20260503201510 | 73 | 45 | 7.0 | 12.2 | 0.00 | 0.11 | 0.00 | 56 | 1011.3 |
| 20260503200005 | 72 | 75 | 4.3 | 13.9 | 0.00 | 0.11 | 0.00 | 57 | 1011.6 |
| 20260503194504 | 72 | 81 | 6.1 | 11.3 | 0.00 | 0.11 | 0.00 | 58 | 1012.1 |
| 20260503193101 | 71 | 57 | 5.2 | 9.6 | 0.00 | 0.11 | 0.00 | 58 | 1012.3 |
| 20260503191606 | 72 | 359 | 7.0 | 12.2 | 0.00 | 0.11 | 0.00 | 56 | 1012.4 |
| 20260503190058 | 73 | 154 | 2.6 | 10.4 | 0.00 | 0.11 | 0.00 | 48 | 1012.4 |
| 20260503184621 | 72 | 204 | 3.5 | 7.0 | 0.00 | 0.11 | 0.00 | 51 | 1012.7 |
| 20260503183059 | 71 | 59 | 2.6 | 7.0 | 0.00 | 0.11 | 0.00 | 52 | 1013.0 |
| 20260503181551 | 71 | 134 | 1.7 | 7.8 | 0.00 | 0.11 | 0.00 | 55 | 1013.3 |
| 20260503180048 | 69 | 163 | 2.6 | 7.8 | 0.00 | 0.11 | 0.00 | 59 | 1013.7 |
| 20260503174602 | 69 | 221 | 1.7 | 6.1 | 0.00 | 0.11 | 0.00 | 57 | 1014.0 |
| 20260503173048 | 69 | 237 | 1.7 | 4.3 | 0.00 | 0.11 | 0.00 | 61 | 1014.3 |
| 20260503171542 | 68 | 152 | 3.5 | 7.0 | 0.00 | 0.11 | 0.00 | 63 | 1014.4 |
| 20260503081555 | 58 | 87 | 3.5 | 7.8 | 0.00 | 0.11 | 0.00 | 76 | 1012.1 |
| 20260503071601 | 57 | 86 | 0.0 | 3.5 | 0.00 | 0.11 | 0.00 | 77 | 1012.2 |
| 20260503054534 | 59 | 70 | 5.2 | 8.7 | 0.00 | 0.11 | 0.11 | 74 | 1012.0 |
| 20260503053026 | 59 | 84 | 7.0 | 12.2 | 0.00 | 0.11 | 0.11 | 72 | 1011.6 |
| 20260503051536 | 59 | 73 | 6.1 | 13.0 | 0.00 | 0.11 | 0.11 | 74 | 1011.5 |
| 20260503050026 | 59 | 47 | 7.0 | 13.0 | 0.00 | 0.11 | 0.11 | 74 | 1011.3 |
| 20260503044525 | 59 | 48 | 7.0 | 13.0 | 0.00 | 0.11 | 0.11 | 75 | 1011.4 |
| 20260503043024 | 59 | 35 | 7.0 | 13.0 | 0.00 | 0.11 | 0.11 | 75 | 1011.5 |
| 20260503041529 | 59 | 56 | 7.8 | 13.9 | 0.00 | 0.11 | 0.11 | 75 | 1011.2 |
| 20260503040023 | 59 | 52 | 7.8 | 14.8 | 0.00 | 0.11 | 0.11 | 77 | 1011.4 |
| 20260503034523 | 59 | 62 | 9.6 | 18.2 | 0.00 | 0.11 | 0.11 | 76 | 1011.2 |
| 20260503033022 | 58 | 68 | 7.0 | 14.8 | 0.01 | 0.11 | 0.11 | 77 | 1011.5 |
| 20260503031520 | 58 | 35 | 9.6 | 18.2 | 0.11 | 0.11 | 0.11 | 78 | 1011.1 |
| 20260503030022 | 57 | 91 | 12.2 | 19.1 | 0.11 | 0.11 | 0.11 | 81 | 1010.6 |
| 20260503024515 | 56 | 83 | 14.8 | 23.5 | 0.11 | 0.11 | 0.11 | 82 | 1010.0 |
| 20260503023012 | 56 | 72 | 10.4 | 17.4 | 0.10 | 0.10 | 0.10 | 83 | 1009.6 |
| 20260503021512 | 58 | 50 | 11.3 | 18.2 | 0.00 | 0.00 | 0.00 | 76 | 1009.5 |
| 20260503020011 | 57 | 37 | 11.3 | 23.5 | 0.00 | 0.00 | 0.00 | 79 | 1009.7 |
| 20260503014509 | 58 | 89 | 11.3 | 20.0 | 0.00 | 0.00 | 0.00 | 78 | 1009.0 |
| 20260503013020 | 58 | 64 | 11.3 | 20.0 | 0.00 | 0.00 | 0.00 | 79 | 1009.1 |
| 20260503011506 | 57 | 92 | 12.2 | 24.3 | 0.00 | 0.00 | 0.00 | 81 | 1008.4 |
| 20260503010003 | 56 | 54 | 12.2 | 21.7 | 0.00 | 0.00 | 0.00 | 82 | 1008.2 |